Time,TemperatureF,DewpointF,PressureIn,WindDirection,WindDirectionDegrees,WindSpeedMPH,WindSpeedGustMPH,Humidity,HourlyPrecipIn,Conditions,Clouds,dailyrainin,SoftwareType,DateUTC
2013-01-29 12:02:00,60.6,58.0,30.00,SSE,162,0.0,-999.0,92,-99.99,,,0.00,weatherlink.com 1.10,2013-01-29 18:02:00,
2013-01-29 12:08:00,60.7,58.0,30.00,SSE,159,5.0,-999.0,92,-99.99,,,0.00,weatherlink.com 1.10,2013-01-29 18:08:00,
2013-01-29 12:23:00,60.9,59.0,29.99,SSW,202,5.0,-999.0,92,-99.99,,,0.00,weatherlink.com 1.10,2013-01-29 18:23:00,
2013-01-29 12:38:00,61.5,59.0,29.98,SSE,148,0.0,-999.0,92,-99.99,,,0.00,weatherlink.com 1.10,2013-01-29 18:38:00,
2013-01-29 12:53:00,62.2,60.0,29.97,South,185,5.0,-999.0,91,-99.99,,,0.00,weatherlink.com 1.10,2013-01-29 18:53:00,
2013-01-29 13:08:00,62.6,60.0,29.96,South,184,0.0,-999.0,91,-99.99,,,0.00,weatherlink.com 1.10,2013-01-29 19:08:00,
2013-01-29 13:23:00,63.1,60.0,29.95,SSW,207,0.0,-999.0,90,-99.99,,,0.00,weatherlink.com 1.10,2013-01-29 19:23:00,
2013-01-29 13:38:00,63.6,60.0,29.94,SSW,207,5.0,-999.0,89,-99.99,,,0.00,weatherlink.com 1.10,2013-01-29 19:38:00,
2013-01-29 13:53:00,64.5,61.0,29.94,SE,142,14.0,-999.0,88,-99.99,,,0.00,weatherlink.com 1.10,2013-01-29 19:53:00,
2013-01-29 14:08:00,65.0,61.0,29.93,SSW,213,0.0,-999.0,87,-99.99,,,0.00,weatherlink.com 1.10,2013-01-29 20:08:00,
2013-01-29 14:29:00,65.8,62.0,29.93,SSE,162,3.0,-999.0,86,-99.99,,,0.00,weatherlink.com 1.10,2013-01-29 20:29:00,
2013-01-29 14:59:00,66.6,62.0,29.92,SSE,166,0.0,-999.0,85,-99.99,,,0.00,weatherlink.com 1.10,2013-01-29 20:59:00,
2013-01-29 15:08:00,66.8,62.0,29.91,SE,146,0.0,-999.0,85,-99.99,,,0.00,weatherlink.com 1.10,2013-01-29 21:08:00,
2013-01-29 16:32:00,67.8,62.0,29.87,South,169,4.0,-999.0,82,-99.99,,,0.00,weatherlink.com 1.10,2013-01-29 22:32:00,
2013-01-29 16:38:00,67.7,62.0,29.87,SE,124,1.0,-999.0,82,-99.99,,,0.00,weatherlink.com 1.10,2013-01-29 22:38:00,
2013-01-29 16:53:00,67.5,62.0,29.88,SSW,200,3.0,-999.0,82,-99.99,,,0.00,weatherlink.com 1.10,2013-01-29 22:53:00,
2013-01-29 17:08:00,67.3,62.0,29.88,South,186,0.0,-999.0,82,-99.99,,,0.00,weatherlink.com 1.10,2013-01-29 23:08:00,
2013-01-29 17:23:00,67.2,62.0,29.87,SE,137,0.0,-999.0,82,-99.99,,,0.00,weatherlink.com 1.10,2013-01-29 23:23:00,
2013-01-29 17:39:00,67.1,62.0,29.87,South,171,4.0,-999.0,83,-99.99,,,0.00,weatherlink.com 1.10,2013-01-29 23:39:00,
2013-01-29 17:53:00,67.2,62.0,29.88,South,173,0.0,-999.0,82,-99.99,,,0.00,weatherlink.com 1.10,2013-01-29 23:53:00,
2013-01-29 18:08:00,66.8,62.0,29.87,SSE,167,0.0,-999.0,83,-99.99,,,0.00,weatherlink.com 1.10,2013-01-30 00:08:00,
2013-01-29 18:23:00,66.8,62.0,29.86,SSE,154,6.0,-999.0,83,-99.99,,,0.00,weatherlink.com 1.10,2013-01-30 00:23:00,
2013-01-29 18:38:00,67.2,62.0,29.86,SE,145,0.0,-999.0,82,-99.99,,,0.00,weatherlink.com 1.10,2013-01-30 00:38:00,
2013-01-29 18:53:00,67.7,62.0,29.86,SSW,205,3.0,-999.0,82,-99.99,,,0.00,weatherlink.com 1.10,2013-01-30 00:53:00,
2013-01-29 19:08:00,67.9,62.0,29.86,SE,140,2.0,-999.0,82,-99.99,,,0.00,weatherlink.com 1.10,2013-01-30 01:08:00,
2013-01-29 19:23:00,68.3,63.0,29.87,SE,125,2.0,-999.0,82,-99.99,,,0.00,weatherlink.com 1.10,2013-01-30 01:23:00,
2013-01-29 19:38:00,68.3,63.0,29.86,SSE,164,6.0,-999.0,82,-99.99,,,0.00,weatherlink.com 1.10,2013-01-30 01:38:00,
2013-01-29 19:53:00,68.3,63.0,29.86,SSW,195,9.0,-999.0,82,-99.99,,,0.00,weatherlink.com 1.10,2013-01-30 01:53:00,
2013-01-29 20:08:00,68.4,63.0,29.85,SE,139,6.0,-999.0,82,-99.99,,,0.00,weatherlink.com 1.10,2013-01-30 02:08:00,
2013-01-29 20:24:00,68.3,63.0,29.84,SSE,159,5.0,-999.0,83,-99.99,,,0.00,weatherlink.com 1.10,2013-01-30 02:24:00,
2013-01-29 20:38:00,68.4,63.0,29.84,SSW,207,6.0,-999.0,82,-99.99,,,0.00,weatherlink.com 1.10,2013-01-30 02:38:00,
2013-01-29 20:53:00,68.6,63.0,29.83,SSE,160,8.0,-999.0,82,-99.99,,,0.00,weatherlink.com 1.10,2013-01-30 02:53:00,
2013-01-29 21:08:00,69.0,63.0,29.81,South,185,8.0,-999.0,81,-99.99,,,0.00,weatherlink.com 1.10,2013-01-30 03:08:00,
2013-01-29 21:23:00,69.1,63.0,29.81,SSE,167,10.0,-999.0,81,-99.99,,,0.00,weatherlink.com 1.10,2013-01-30 03:23:00,
2013-01-29 21:38:00,69.0,63.0,29.80,SW,220,6.0,-999.0,81,-99.99,,,0.00,weatherlink.com 1.10,2013-01-30 03:38:00,
2013-01-29 21:53:00,68.9,63.0,29.80,SSE,166,4.0,-999.0,81,-99.99,,,0.00,weatherlink.com 1.10,2013-01-30 03:53:00,
2013-01-29 22:08:00,69.0,63.0,29.79,SSW,192,9.0,-999.0,81,-99.99,,,0.00,weatherlink.com 1.10,2013-01-30 04:08:00,
2013-01-29 22:23:00,69.1,63.0,29.78,SW,228,13.0,-999.0,81,-99.99,,,0.00,weatherlink.com 1.10,2013-01-30 04:23:00,
2013-01-29 22:38:00,69.1,63.0,29.79,South,177,10.0,-999.0,81,-99.99,,,0.00,weatherlink.com 1.10,2013-01-30 04:38:00,
2013-01-29 22:53:00,69.0,63.0,29.78,SSE,159,7.0,-999.0,81,-99.99,,,0.00,weatherlink.com 1.10,2013-01-30 04:53:00,
2013-01-29 23:09:00,69.1,63.0,29.77,SE,144,12.0,-999.0,81,-99.99,,,0.00,weatherlink.com 1.10,2013-01-30 05:09:00,
2013-01-29 23:23:00,69.2,63.0,29.77,South,177,11.0,-999.0,81,-99.99,,,0.00,weatherlink.com 1.10,2013-01-30 05:23:00,
2013-01-29 23:38:00,68.9,63.0,29.76,SSE,161,0.0,-999.0,82,-99.99,,,0.00,weatherlink.com 1.10,2013-01-30 05:38:00,
2013-01-29 23:53:00,68.5,63.0,29.74,SSE,167,5.0,-999.0,83,-99.99,,,0.00,weatherlink.com 1.10,2013-01-30 05:53:00,